Regional Weather Roundup
Issued by NWS Boston, MA

Home | Current Version | Previous Version | Text Only | Print | Product List | Glossary On
Versions: 1 2 3 4 5 6 7 8 9 10 11 12 13 14 15 16 17 18 19 20 21 22 23 24 25 26 27 28 29 30 31 32 33 34 35 36 37 38 39 40 41 42 43 44 45 46 47 48 49 50
000
ASUS41 KBOX 180210
RWRBOX

REGIONAL WEATHER ROUNDUP
NATIONAL WEATHER SERVICE TAUNTON MA
1000 PM EDT WED SEP 17 2014

NOTE:  "FAIR" INDICATES FEW OR NO CLOUDS BELOW 12,000 FEET WITH NO
SIGNIFICANT WEATHER AND/OR OBSTRUCTIONS TO VISIBILITY.  THE FOLLOWING
OBSERVATION LOCATIONS DO NOT REPORT PRESENT WEATHER...PROVINCETOWN...
SMITHFIELD...BLOCK ISLAND...KEENE...AND OXFORD.

MAZALL-180300-
EASTERN MASSACHUSETTS

CITY           SKY/WX    TMP DP  RH WIND       PRES   REMARKS
BOSTON         CLEAR     63  44  50 NW3       29.97F
BEVERLY        CLEAR     52  50  93 CALM      29.96F FOG
LAWRENCE       CLEAR     53  50  89 CALM      29.98F
BEDFORD        CLEAR     49  47  93 CALM      29.96F
BLUE HILL        N/A     58  44  60 W8        29.97F
NORWOOD        CLEAR     47  43  86 CALM      29.97F
MARSHFIELD     NOT AVBL
PLYMOUTH       CLEAR     50  45  83 CALM      29.99S
TAUNTON        CLEAR     46  45  96 CALM      29.98S
NEW BEDFORD    CLEAR     52  48  86 CALM      29.97S
$$

MAZALL-180300-
CAPE COD AND THE ISLANDS

CITY           SKY/WX    TMP DP  RH WIND       PRES   REMARKS
FALMOUTH       CLEAR     55  48  76 SW5       29.98F
HYANNIS        CLEAR     54  48  80 CALM      29.97F
CHATHAM        CLEAR     61  49  64 SW5       29.99F
PROVINCETOWN   CLEAR     61  52  72 SW10      29.98S
NANTUCKET      CLEAR     58  50  75 SW6       29.99S
MARTHAS VNYRD  CLEAR     45  43  93 CALM      29.98F
$$

MAZALL-180300-
CENTRAL AND WESTERN MASSACHUSETTS

CITY           SKY/WX    TMP DP  RH WIND       PRES   REMARKS
WORCESTER      CLEAR     52  44  74 W5        29.99F
FITCHBURG      CLEAR     53  48  83 CALM      29.99F
ORANGE         CLEAR     48  46  93 CALM      29.99S
SPRINGFIELD    CLEAR     49  47  95 NE5       29.98F
WESTFIELD      CLEAR     51  48  89 CALM      29.98F
NORTH ADAMS    CLEAR     45  43  93 CALM      30.00S
PITTSFIELD     CLEAR     46  44  93 CALM      29.99S
$$

RIZALL-180300-
RHODE ISLAND

CITY           SKY/WX    TMP DP  RH WIND       PRES   REMARKS
PROVIDENCE     PTCLDY    58  47  66 W5        29.99S
NEWPORT        CLEAR     61  49  64 CALM      29.98F
BLOCK ISLAND   CLEAR     57  46  67 W5        29.99S
SMITHFIELD     PTCLDY    46  37  71 CALM      29.98S
WESTERLY       CLEAR     52  49  89 CALM      30.00S
$$

CTZALL-180300-
CONNECTICUT

CITY           SKY/WX    TMP DP  RH WIND       PRES   REMARKS
BRADLEY INTL   PTCLDY    57  48  72 CALM      29.97F
HARTFORD       CLEAR     55  50  83 CALM      29.98F
BRIDGEPORT     CLEAR     60  49  66 CALM      29.99S
DANBURY        CLEAR     49  47  93 SW3       30.01S
GROTON         CLEAR     55  51  86 NE5       29.99S
NEW HAVEN      CLEAR     54  47  77 CALM      29.99S
CHESTER        FAIR      54  48  82 CALM      30.00S
MERIDEN        CLEAR     50  46  86 CALM      29.99S
WILLIMANTIC    CLEAR     53  49  86 CALM      30.00S
OXFORD         CLEAR     48  43  81 CALM      30.01S
$$

MEZ002-015-021-024-NHZ003-005-008-011-012-014-VTZ005-008-180300-
NORTHERN NEW ENGLAND

CITY           SKY/WX    TMP DP  RH WIND       PRES   REMARKS
PORTLAND ME    CLEAR     55  53  93 CALM      29.96F
BANGOR ME      CLEAR     54  50  86 S7        29.95F
CONCORD NH     CLEAR     48  47  96 CALM      29.96F
MANCHESTER NH  PTCLDY    56  47  71 SE3       29.95F
NASHUA NH      CLEAR     52  49  89 CALM      29.97F
PORTSMOUTH NH  PTCLDY    55  51  87 SW6       29.95F
JAFFREY NH     CLEAR     46  44  93 S3        29.99F
KEENE NH       CLEAR     46  39  76 CALM      29.99S
BURLINGTON VT  PTCLDY    57  46  66 S6        29.94S
MT. WASHINGTON FOG       34  34 100 W21         N/A  VSB 0   WCI  22
$$

NYZ052-076-180300-
EASTERN NEW YORK

CITY           SKY/WX    TMP DP  RH WIND       PRES   REMARKS
ALBANY         CLEAR     52  47  83 CALM      29.98S
NEW YORK CITY  PTCLDY    66  50  56 S6        29.98S
$$

ANZALL-180300-
MARINE OBSERVATIONS

STATION/POSITION TIME  TEMP    WIND        PRES    VSBY  WAVE
                       AIR SEA DIR/SP/G                  HT/PER
                 (UTC) (F)     (DEG/KT/KT) (MB)    (MI)  (FT/S)
BOSTON BUOY      0150   62 63  250/  2/  4 1015.1R         3/14
BUZZARDS BAY     0100          230/ 12/ 13 1016.1R
NANTUCKET SOUND  0150   65 68  250/  8/ 12 1015.1F         1/14
MASS BAY-STELLWA 0104   62 60  170/  2/  2   N/A    1 7/8  1
ISLE OF SHOALS   0100   60     210/  7/  8 1014.4S
S OF BLOCK IS    0108      68                N/A           4/14
$$

......................KEY.........................
  SKY/WX - SKY CONDITION/PRESENT WEATHER
  TMP    - TEMPERATURE IN FAHRENHEIT
  DWPT   - DEWPOINT IN FAHRENHEIT
  RH     - RELATIVE HUMIDITY IN PERCENT
  WIND   - DIRECTION AND SPEED IN MPH
  PRES   - MEAN SEA LEVEL PRESSURE IN INCHES OF HG
  WCI    - WIND CHILL INDEX
  VSB    - VISIBILITY IN MILES
  HX     - HEAT INDEX
  TC     - TEMPERATURE IN CELSIUS
  VRB    - VARIABLE WIND DIRECTION
  N/A    - NOT AVAILABLE



USA.gov is the U.S. government's official web portal to all federal, state and local government web resources and services.